Miscellaneous Local Product
Issued by NWS North Platte, NE

Home | Current Version | Previous Version | Graphics & Text | Print | Product List | Glossary On
Versions: 1 2 3 4 5 6 7 8 9 10 11 12 13 14 15 16 17 18 19 20 21 22 23 24 25 26 27 28 29 30 31 32 33 34 35 36 37 38 39 40 41 42 43 44 45 46 47 48 49 50
000
AXUS43 KLBF 250810
MISLBF


WESTERN AND NORTH CENTRAL NEBRASKA HOURLY WEATHER ROUNDUP
NATIONAL WEATHER SERVICE NORTH PLATTE NE
300 AM CDT WED APR 25 2018

NOTE: "FAIR" INDICATES FEW OR NO CLOUDS BELOW 12,000 FEET WITH NO
SIGNIFICANT WEATHER AND/OR OBSTRUCTIONS TO VISIBILITY.

NOTE: STATIONS NOT REPORTING VARIABLES SUCH AS SKY/WEATHER OR
PRESSURE ARE PROVIDED BY RAWS AND APRS NETWORKS AND ARE NOT UNDER
NATIONAL WEATHER SERVICE QUALITY CONTROL.

...OBSERVATIONS IN AND NEAR THE EASTERN PANHANDLE OF NEBRASKA...

CITY           SKY/WX    TMP DP  RH WIND       PRES   REMARKS
PINE RIDGE     CLEAR     29  27  92 CALM      30.39F
GORDON         FAIR      32  28  86 W6        30.37F WCI  26
CHADRON        CLEAR     24  23  96 SW6       30.40F WCI  17
ALLIANCE       PTCLDY    26  26 100 W7        30.38F WCI  18
SIDNEY         PTCLDY    28  26  92 W9        30.40F WCI  19
CRESCENT LAKE    N/A     34  31  88 W6          N/A  WCI  29
$$

...OBSERVATIONS IN NORTHERN NEBRASKA AND FAR SOUTHERN SOUTH DAKOTA...

CITY           SKY/WX    TMP DP  RH WIND       PRES   REMARKS
WINNER         FAIR      36  30  79 W8        30.35F WCI  30
VALENTINE      CLOUDY    38  33  82 NW10      30.36F WCI  31
AINSWORTH      CLOUDY    38  36  90 NW8       30.35F WCI  32
O`NEILL        CLOUDY    41  39  91 NW7       30.33F
THEDFORD       CLOUDY    37  35  90 NW8       30.36F WCI  31
BROKEN BOW     CLOUDY    39  35  86 NW16      30.32F WCI  30
ORD            LGT RAIN  40  38  93 NW10      30.31F WCI  33
ALBION         CLOUDY    42  39  90 N13       30.30F
VALENTINE NWR    N/A     36  34  91 NW6         N/A  WCI  31
HALSEY           N/A     36  36  99 NW7G14      N/A  WCI  30
BUTTE            N/A     36  33  90 W3          N/A
CHAMBERS         N/A     40  39  95 N3          N/A
EWING            N/A     39  36  90 N12         N/A  WCI  32
$$

...OBSERVATIONS IN SOUTHWEST NEBRASKA AND FAR NORTHEAST COLORADO...

CITY           SKY/WX    TMP DP  RH WIND       PRES   REMARKS
WRAY           CLOUDY    32  32 100 W5        30.40F WCI  27
HOLYOKE        FAIR      37  32  81 NW10      30.39F WCI  30
IMPERIAL       CLOUDY    37  32  82 NW10      30.38F WCI  30
OGALLALA       CLOUDY    37  32  81 NW9       30.38F WCI  31
NORTH PLATTE   CLOUDY    38  34  85 N10       30.36F WCI  31
MCCOOK         CLOUDY    38  34  85 N14       30.35F WCI  30
LEXINGTON      DRIZZLE   39  36  86 NW12      30.33F WCI  32
STAPLETON        N/A     35  33  93 CALM        N/A
GOTHENBURG       N/A     37  32  83 NW8         N/A  WCI  31
CALLAWAY         N/A     36  34  94 NW12        N/A  WCI  28
$$

...OBSERVATIONS IN CENTRAL LINCOLN COUNTY AREA...

CITY           SKY/WX    TMP DP  RH WIND       PRES   REMARKS
N.P. AIRPORT   CLOUDY    38  34  85 N10       30.36F WCI  31
N.P. DOWNTOWN    N/A     37  34  88 CALM        N/A
N.P. SOUTHEAST   N/A     37  33  85 NW3         N/A
N.P. HILLCREST   N/A     37  34  89 NW7         N/A  WCI  31
$$

...OBSERVATIONS ACROSS THE ROCKIES AND WESTERN HIGH PLAINS...

CITY           SKY/WX    TMP DP  RH WIND       PRES   REMARKS
RAPID CITY     CLEAR     27  21  78 NW6       30.36F WCI  20
SCOTTSBLUFF    CLEAR     28  27  96 N5        30.40F WCI  23
CHEYENNE       CLEAR     27  24  89 W7        30.38F WCI  19
DENVER         CLOUDY    36  27  69 CALM      30.40F
BERTHOUD PASS  CLOUDY    12   3  67 NW15G24   30.37F WCI  -4
MONARCH PASS   CLEAR     21   5  49 W22       30.48S WCI   5
ASPEN          PTCLDY    27  19  72 S6        30.37R WCI  20
STEAMBOAT      FAIR      29  20  69 CALM      30.40S
LARAMIE        CLEAR     20  16  84 W5        30.37F WCI  13
CASPER         CLEAR     25  22  88 W10       30.36F WCI  15
$$

...OBSERVATIONS ACROSS THE NORTHERN PLAINS...

CITY           SKY/WX    TMP DP  RH WIND       PRES   REMARKS
BISMARCK       CLEAR     36  28  73 CALM      30.29F
FARGO          FAIR      30  26  85 SW3       30.29F
PIERRE         CLEAR     32  30  92 SW7       30.34F WCI  26
SIOUX FALLS    CLOUDY    35  28  75 N9        30.28F WCI  28
$$

...OBSERVATIONS ACROSS THE CENTRAL AND SOUTHERN PLAINS...

CITY           SKY/WX    TMP DP  RH WIND       PRES   REMARKS
OMAHA          CLOUDY    47  44  90 N13       30.21R
GRAND ISLAND   CLOUDY    42  38  85 N18G28    30.29F
KANSAS CITY    CLOUDY    55  44  66 N8        30.11R
WICHITA        LGT RAIN  47  46  97 NW18      30.22S
DODGE CITY     CLOUDY    39  36  89 NW13      30.31F WCI  31
OKLAHOMA CITY  CLOUDY    51  44  77 N24G33    30.16S
DALLAS         CLOUDY    68  53  58 N10G17    30.03R
AMARILLO       LGT RAIN  39  37  92 N26G37    30.32S FOG     WCI  28
$$




USA.gov is the U.S. government's official web portal to all federal, state and local government web resources and services.